Newton, KS

8:06 AM CST on December 08, 2019 (GMT -0600)
Newton City County

Weather History for KEWK - October, 2019

Change the Weather History Date:

Thursday, October 10, 2019

  Actual Average Record
Temperature  
Mean Temperature 52 °F -  
Max Temperature 66 °F 67 °F 80 °F (1999)
Min Temperature 36 °F 47 °F 36 °F (2019)
Degree Days  
Heating Degree Days 14    
Growing Degree Days 2 (Base 50)    
Moisture  
Dew Point 47 °F    
Average Humidity 85    
Maximum Humidity 93    
Minimum Humidity 70    
Precipitation  
Precipitation 0.09 in - - ()
Sea Level Pressure  
Sea Level Pressure 29.83 in    
Wind  
Wind Speed 20 mph (WNW)    
Max Wind Speed 26 mph    
Max Gust Speed 36 mph    
Visibility 9 miles    
Events      
Averages and records for this station are not official NWS values.
T = Trace of Precipitation, MM = Missing Value Source: NWS Daily Summary

Daily Weather History Graph

Daily Weather History Graph

Search for Another Location

Airport or City:

Astronomy

Oct. 10, 2019 Rise Set
Actual Time 7:32 AM CDT 6:58 PM CDT
Civil Twilight 7:06 AM CDT 7:25 PM CDT
Nautical Twilight 6:35 AM CDT 7:55 PM CDT
Astronomical Twilight 6:05 AM CDT 8:26 PM CDT
Moon 5:57 PM CDT (10/10) 4:22 AM CDT (10/10)
Length of Visible Light 12h 18m
Length of Day
11h 25m
Waxing Gibbous, 91% of the Moon is Illuminated
Oct 10
Waxing Gibbous
Oct 13
Full
Oct 21
Last Quarter
Oct 27
New
Nov 4
First Quarter

Hourly Weather History & Observations

Time (CDT) Temp. Windchill Dew Point Humidity Pressure Visibility Wind Dir Wind Speed Gust Speed Precip Events Conditions
12:56 AM 64.0 °F - 60.1 °F 87% 29.70 in 10.0 mi SSE 19.6 mph 27.6 mph N/A   Clear
1:56 AM 64.9 °F - 60.1 °F 84% 29.69 in 8.0 mi South 19.6 mph 26.5 mph N/A   Scattered Clouds
2:56 AM 63.0 °F - 60.1 °F 90% 29.67 in 10.0 mi South 19.6 mph 25.3 mph 0.09 in   Mostly Cloudy
3:56 AM 64.0 °F - 57.0 °F 78% 29.66 in 10.0 mi South 13.8 mph - N/A   Overcast
4:56 AM 64.9 °F - 60.1 °F 84% 29.65 in 10.0 mi SE 20.7 mph 28.8 mph N/A   Scattered Clouds
5:25 AM 64.4 °F - 60.8 °F 88% 29.68 in 10.0 mi SE 23.0 mph 27.6 mph N/A   Mostly Cloudy
5:56 AM 64.0 °F - 61.0 °F 90% 29.64 in 10.0 mi SE 20.7 mph 26.5 mph N/A   Scattered Clouds
6:34 AM 64.4 °F - 60.8 °F 88% 29.68 in 10.0 mi SSE 17.3 mph - N/A   Mostly Cloudy
6:43 AM 64.4 °F - 60.8 °F 88% 29.68 in 10.0 mi SE 19.6 mph 25.3 mph N/A   Mostly Cloudy
6:56 AM 64.0 °F - 61.0 °F 90% 29.65 in 10.0 mi SSE 16.1 mph - N/A   Overcast
7:56 AM 64.0 °F - 62.1 °F 93% 29.66 in 10.0 mi SSE 15.0 mph 20.7 mph N/A   Overcast
8:56 AM 64.9 °F - 63.0 °F 93% 29.69 in 10.0 mi South 9.2 mph - N/A   Overcast
9:56 AM 66.9 °F - 63.0 °F 87% 29.71 in 10.0 mi WSW 13.8 mph - N/A   Overcast
10:56 AM 53.1 °F - 48.9 °F 86% 29.78 in 10.0 mi WNW 18.4 mph 26.5 mph N/A   Overcast
11:15 AM 51.8 °F - 48.2 °F 88% 29.80 in 10.0 mi WNW 18.4 mph - N/A   Overcast
11:56 AM 48.9 °F - 46.0 °F 90% 29.81 in 10.0 mi NW 18.4 mph 27.6 mph N/A   Overcast
12:56 PM 46.9 °F - 43.0 °F 86% 29.84 in 10.0 mi NW 20.7 mph 26.5 mph N/A   Overcast
1:29 PM 46.4 °F 39.0 °F 42.8 °F 87% 29.86 in 3.0 mi NW 19.6 mph 28.8 mph N/A   Overcast
1:32 PM 46.4 °F 38.7 °F 44.6 °F 93% 29.86 in 2.5 mi NW 20.7 mph 25.3 mph N/A   Overcast
1:53 PM 44.6 °F 36.4 °F 42.8 °F 93% 29.86 in 8.0 mi NW 20.7 mph - N/A   Overcast
1:56 PM 45.0 °F 36.6 °F 43.0 °F 93% 29.85 in 8.0 mi NW 21.9 mph 28.8 mph N/A   Overcast
2:13 PM 44.6 °F 35.5 °F 42.8 °F 93% 29.87 in 7.0 mi NW 25.3 mph 28.8 mph N/A   Overcast
2:56 PM 44.1 °F 35.0 °F 39.9 °F 85% 29.88 in 9.0 mi NW 24.2 mph 28.8 mph N/A   Overcast
3:48 PM 44.6 °F 36.1 °F 39.2 °F 81% 29.91 in 10.0 mi NW 21.9 mph 34.5 mph N/A   Overcast
3:56 PM 43.0 °F 33.1 °F 37.9 °F 82% 29.91 in 10.0 mi NW 26.5 mph 31.1 mph N/A   Overcast
4:11 PM 42.8 °F 33.8 °F 37.4 °F 81% 29.93 in 10.0 mi NW 21.9 mph 35.7 mph N/A   Overcast
4:56 PM 43.0 °F 33.5 °F 37.0 °F 80% 29.93 in 10.0 mi NNW 24.2 mph 35.7 mph N/A   Overcast
5:56 PM 41.0 °F 30.7 °F 36.0 °F 82% 29.96 in 10.0 mi NNW 25.3 mph 33.4 mph N/A   Overcast
6:56 PM 39.9 °F 30.0 °F 34.0 °F 79% 29.99 in 10.0 mi NW 21.9 mph 32.2 mph N/A   Overcast
7:56 PM 39.9 °F 29.5 °F 33.1 °F 77% 30.01 in 10.0 mi NNW 24.2 mph 33.4 mph N/A   Overcast
8:56 PM 39.0 °F 29.0 °F 30.9 °F 73% 30.06 in 10.0 mi NNW 20.7 mph 31.1 mph N/A   Overcast
9:56 PM 39.0 °F 28.5 °F 30.9 °F 73% 30.10 in 10.0 mi NNW 23.0 mph 29.9 mph N/A   Overcast
10:56 PM 37.0 °F 25.9 °F 28.0 °F 70% 30.13 in 10.0 mi NNW 23.0 mph 32.2 mph N/A   Scattered Clouds
11:56 PM 36.0 °F 25.6 °F 28.0 °F 73% 30.17 in 10.0 mi NNW 18.4 mph 26.5 mph N/A   Clear